Starlink 6212

operational
NORAD ID: 57330 Int'l Des: 2023-099 Owner: SPXS Country: US Constellation: starlink
LEOCIRCULAR

关于 Starlink 6212

正在加载描述...

实时位置

正在加载3D地球...

即将过境

高度历史

Altitude vs Time

uPlot chart will show altitude changes over time

两行轨道根数

1 57330U 23099C 26033.52590680 .00001232 00000-0 10624-3 0 9994
2 57330 43.0046 80.3393 0001618 276.3097 83.7561 15.02536928140829
Epoch: Feb 2, 2026 • Age: 14 hours

当前状态

高度 558.2 km
速度 7.58 km/s
星下点 6.59°N, 94.51°W
发射日期 Jul 16, 2023
运行时间 2.5 years
类型 internet

技术详情

分类 Payload
质量 305.00 kg
干质量 290.00 kg
总质量 305.00 kg
长度 0.20 m
直径 2.80 m
跨度 9.00 m
形状 Box + pan
制造商 SPXS
平台类型 Starlink
阶段状态 In Orbit
所有者/国家 SPXS/US

大型星座

Loading constellations...